NOAA NWS Hourly Roundups by Site

Regional Weather Roundup for Bismarck, ND

To Select Another Site Choose from List

Select Site:  

000
ASUS43 KBIS 221210
RWRBIS

NWR BROADCAST TEXT
NATIONAL WEATHER SERVICE BISMARCK ND
700 AM CDT WED MAY 22 2019

NOTE: "FAIR" INDICATES FEW OR NO CLOUDS BELOW 12,000 FEET WITH NO
SIGNIFICANT WEATHER AND/OR OBSTRUCTIONS TO VISIBILITY.


CITY           SKY/WX    TMP DP  RH WIND       PRES   REMARKS
WILLISTON      CLOUDY    51  33  50 N14       29.77R
MINOT          CLOUDY    52  33  48 N12       29.72R
MINOT AFB      CLOUDY    51  33  51 NE13      29.72R
BISMARCK       LGT RAIN  43  41  93 NE12G22   29.62S
DICKINSON      LGT RAIN  43  40  89 NE12      29.64S
GARRISON         N/A     47  40  76 E16       29.68R
HETTINGER ARPT RAIN      39  37  92 NE17G24   29.61R FOG
JAMESTOWN      LGT RAIN  44  43  96 NE18G29   29.57F FOG
CARRINGTON     LGT RAIN  45  43  93 NE18G24   29.66S
HAZEN          LGT RAIN  45  45 100 NE10G20   29.69S
MANDAN         LGT RAIN  41  41 100 NE13G22   29.62S
OAKES          CLOUDY    45  45 100 NE21G26   29.50F FOG
STANLEY        FAIR      48  34  57 NE13G22   29.75R
TIOGA          FAIR      48  32  53 NE18G24   29.77S
WATFORD CITY   FAIR      50  34  53 NE13      29.73R
$$

CITY           SKY/WX    TMP DP  RH WIND       PRES   REMARKS
GRAND FORKS    LGT RAIN  47  42  83 NE20G31   29.67F
GRAND FORKS AF LGT RAIN  46  46 100 NE18G25   29.68F
DEVILS LAKE    LGT RAIN  45  43  93 NE23G30   29.70F
FARGO          CLOUDY    48  44  86 NE13      29.57F
CANDO          CLOUDY    48  41  76 E21       29.77S
CAVALIER       CLOUDY    52  39  62 E24G31    29.77F
GRAFTON        CLOUDY    46  46 100 NE20G25   29.75F FOG
GWINNER          N/A     45  45 100 NE14G21   29.51S
LANGDON          N/A    N/A N/A N/A E20       29.76F
ROLLA          FAIR      50  30  46 NE14      29.77S
WALHALLA       CLOUDY    54  30  40 E9G16     29.78S
$$

CITY           SKY/WX    TMP DP  RH WIND       PRES   REMARKS
ABERDEEN       CLOUDY    47  44  90 NE12      29.45S
MOBRIDGE         N/A     46  41  82 NE16G25   29.46S
BUFFALO          N/A     42  37  82 N26G32    29.58F
RAPID CITY     LGT RAIN  34  33  96 NW20      29.53R FOG
GLASGOW        MOCLDY    46  30  53 NE16      29.84R
SIDNEY         CLOUDY    49  34  56 N13       29.75S
WOLF POINT     CLOUDY    48  32  53 E3        29.82S
GLENDIVE       CLOUDY    48  34  58 N14       29.74R
MILES CITY     CLOUDY    41  39  93 NW9       29.74R
BAKER          CLOUDY    44  35  70 N14       29.68S
$$

CITY           SKY/WX    TMP DP  RH WIND       PRES   REMARKS
BILLINGS       LGT RAIN  43  38  82 NW9       29.86R
GREAT FALLS    LGT RAIN  41  40  96 N10       29.97S
REGINA         CLOUDY    50  32  50 NE15      29.94S
ESTEVAN        CLEAR     48  32  53 NE13G18   29.82S
$$



 

View Past Reports for Bismarck, ND.

Products Courtesy of NOAA-NWS
NWS Information Parsing Script by Ken True at Saratoga Weather - Script by SE Lincoln Weather.